Location: Bad Rothenbrunn
(47.2167°N, 11.2167°E)
Time: 19:46:19
(UTC+00:00)

SAR-Lupe-4 - Pass Details

Date: 03 March 2021
Orbit: 483 x 483 km, 98.2° (Epoch: 13 April)

Event Time Altitude Azimuth Distance (km) Brightness Sun altitude
Rises 18:00:08 0° 17° (NNE) 2,563 7.1 -10.4°
Reaches altitude 10° 18:02:14 10° 21° (NNE) 1,678 6.1 -10.8°
Maximum altitude 18:05:48 59° 102° (ESE) 567 3.6 -11.4°
Drops below altitude 10° 18:09:19 10° 182° (S) 1,662 6.3 -12.0°
Sets 18:11:24 0° 187° (S) 2,537 7.3 -12.3°
